User: anonymous   Login
Location: *
(0.1100°N, 5.5000°E)
Time: 14:57:47
(UTC+00:00)
Language:

SEDSat Delta rocket - Orbit

View from above orbital plane
View from above orbital plane
View from above satellite
View from above satellite

Ground track
Ground track

The orbit data is extracted from the following two-line orbital elements,

1 25510U 98061C   23083.84885823  .00003751  00000-0  64143-3 0  9996
2 25510  31.4334 290.5505 0322796  53.9428  24.0529 14.38664487281193
Epoch (UTC): 24 March 2023 20:22:21
Eccentricity: 0.0322796
inclination: 31.4334°
perigee height: 532 km
apogee height: 993 km
right ascension of ascending node: 290.5505°
argument of perigee: 53.9428°
revolutions per day: 14.38664487
mean anomaly at epoch: 24.0529°
orbit number at epoch: 28119

The dashed part of the orbit path shows where the satellite is in the earth's shadow,  

DLR